Powrót do katalogu

SL-12 DEB

LostHEO
NORAD 39804·DEBRIS·🇷🇺 Russia

Wystrzelony Sep 25, 2008 z Baikonur Cosmodrome

Loading…

Następne Przeloty (najbliższe 24 godziny)

TLE

NieaktualneSource: Space-Track

Epoka: Oct 30, 2018, 00:17 UTC

1 39804U 08046R   18303.01220943  .00000169  00000-0  31310-3 0  9995
2 39804  66.1587 298.3022 5681351 340.6066   4.4378  4.32967883 69718

Śledź SL-12 DEB w czasie rzeczywistym z AllMySat

Download on the App Store